FW4441 Weather Reports


time (UTC)temp
F
wind
direction
speed
knots
gust
knots
rain 1hr
in
rain 24hr
in
rain mn
in
humidity
%
barometer
mb
20200531081529 52 239 0.0 0.0 0.00 0.84 0.00 78 1014.4
20200531080029 52 226 0.0 0.0 0.00 0.84 0.00 77 1014.1
20200531074531 52 225 0.0 0.0 0.00 0.84 0.00 77 1014.1
20200531073030 52 217 0.0 0.0 0.00 0.84 0.00 77 1014.1
20200531071531 52 210 0.0 0.0 0.00 0.84 0.00 77 1014.1
20200531070030 52 240 0.0 0.0 0.00 0.84 0.00 75 1013.7
20200531064530 53 245 0.0 0.0 0.00 0.84 0.00 74 1014.1
20200531063033 53 221 0.0 0.0 0.00 0.84 0.00 73 1014.1
20200531061528 53 199 0.0 0.0 0.00 0.84 0.00 74 1014.1
20200531060029 53 225 0.0 0.0 0.00 0.84 0.00 72 1013.7
20200531054529 53 225 0.0 0.0 0.00 0.84 0.00 72 1013.7
20200531053031 53 213 2.6 0.0 0.00 0.84 0.00 72 1013.7
20200531051532 53 212 7.8 0.0 0.00 0.84 0.00 73 1013.7
20200531050030 53 220 6.1 0.0 0.00 0.84 0.00 71 1013.7
20200531044530 53 215 6.1 0.0 0.00 0.84 0.00 70 1013.7
20200531043028 53 202 2.6 0.0 0.00 0.84 0.00 71 1013.4
20200531041530 53 199 1.7 0.0 0.00 0.84 0.00 70 1013.4
20200531040030 53 199 8.7 0.0 0.00 0.84 0.00 68 1013.0
20200531034528 53 203 7.8 0.0 0.00 0.84 0.00 68 1013.0
20200531033030 53 206 7.0 0.0 0.00 0.84 0.00 68 1012.7
20200531031531 53 207 5.2 0.0 0.00 0.84 0.00 71 1012.7
20200531030029 53 201 6.1 0.0 0.00 0.84 0.00 74 1012.7
20200531024531 54 198 3.5 0.0 0.00 0.84 0.00 72 1012.7
20200531023029 54 204 0.0 0.0 0.00 0.84 0.00 75 1012.3
20200531021528 54 204 0.0 0.0 0.00 0.84 0.00 75 1012.3
20200531020034 53 203 0.0 0.0 0.00 0.84 0.00 79 1012.0
20200531014530 52 203 0.0 0.0 0.01 0.84 0.00 81 1012.0
20200531013030 53 210 0.0 0.0 0.01 0.84 0.00 85 1012.0
20200531011530 53 212 0.0 0.0 0.01 0.84 0.00 87 1011.6
20200531010028 53 211 0.0 0.0 0.01 0.84 0.00 92 1011.3
20200531004531 52 232 0.0 0.0 0.01 0.83 0.00 92 1011.3
20200531003030 52 224 0.0 0.0 0.02 0.83 0.00 91 1011.3
20200531001531 52 246 0.0 0.0 0.04 0.83 0.00 91 1011.3
20200531000031 52 263 0.0 0.0 0.16 0.83 0.00 89 1010.9
20200530234528 52 214 0.0 0.0 0.23 0.82 0.00 88 1010.9
20200530233030 52 325 0.0 0.0 0.74 0.81 0.00 86 1010.6
20200530231530 53 274 0.0 0.0 0.79 0.79 0.00 82 1010.2
20200530230031 56 197 0.0 0.0 0.67 0.67 0.00 71 1011.6
20200530224528 58 204 0.0 0.0 0.59 0.59 0.00 67 1010.6
20200530223030 58 197 2.6 0.0 0.07 0.07 0.00 67 1009.9
20200530221528 59 200 4.3 0.0 0.00 0.00 0.00 66 1008.9
20200530220031 60 201 6.1 0.0 0.00 0.00 0.00 66 1008.2
20200530214530 62 235 7.8 0.0 0.00 0.00 0.00 66 1007.8
20200530213028 64 245 0.9 0.0 0.00 0.00 0.00 63 1007.5
20200530211531 66 244 0.9 0.0 0.00 0.00 0.00 60 1007.5
20200530210029 68 246 2.6 0.0 0.00 0.00 0.00 59 1007.5
20200530204529 68 249 9.6 0.0 0.00 0.00 0.00 61 1006.8
20200530203031 67 247 3.5 0.0 0.00 0.00 0.00 61 1006.8
20200530201528 69 256 11.3 0.0 0.00 0.00 0.00 62 1006.4
20200530200029 68 273 7.8 0.0 0.00 0.00 0.00 62 1006.1
20200530194529 68 274 9.6 0.0 0.00 0.00 0.00 61 1005.7
20200530193028 70 284 10.4 0.0 0.00 0.00 0.00 60 1005.7
20200530191531 70 308 2.6 0.0 0.00 0.00 0.00 63 1005.7
20200530190031 69 341 0.9 0.0 0.00 0.00 0.00 63 1005.4
20200530184532 70 348 4.3 0.0 0.00 0.00 0.00 63 1005.4
20200530183031 69 357 4.3 0.0 0.00 0.00 0.00 64 1005.4
20200530181531 69 4 5.2 0.0 0.00 0.00 0.00 65 1005.4
20200530180029 66 360 6.1 0.0 0.00 0.00 0.00 69 1005.4
20200530174533 65 19 7.0 0.0 0.00 0.00 0.00 67 1005.7
20200530173030 67 5 3.5 0.0 0.00 0.00 0.00 66 1005.7
20200530171528 68 9 5.2 0.0 0.00 0.00 0.00 65 1006.1
20200530170029 69 2 3.5 0.0 0.00 0.00 0.00 65 1006.4
20200530164528 67 25 2.6 0.0 0.00 0.00 0.00 67 1006.8
20200530163039 67 337 0.9 0.0 0.00 0.00 0.00 67 1007.1
20200530161527 67 307 0.9 0.0 0.00 0.00 0.00 68 1007.5
20200530160030 65 352 1.7 0.0 0.00 0.00 0.00 70 1007.8
20200530154529 64 8 0.0 0.0 0.00 0.00 0.00 70 1008.2
20200530153029 63 5 0.0 0.0 0.00 0.00 0.00 71 1007.8
20200530151530 61 20 0.0 0.0 0.00 0.00 0.00 72 1007.8
20200530150030 60 330 0.0 0.0 0.00 0.00 0.00 72 1008.2
20200530144530 60 19 0.0 0.0 0.00 0.00 0.00 71 1008.2
20200530143029 62 329 2.6 0.0 0.00 0.00 0.00 72 1008.9
20200530141530 62 343 0.0 0.0 0.00 0.00 0.00 70 1008.9
20200530140030 62 12 0.0 0.0 0.00 0.00 0.00 71 1008.5
20200530134528 62 9 0.0 0.0 0.00 0.00 0.00 72 1007.8
20200530133031 62 3 0.0 0.0 0.00 0.00 0.00 72 1007.5
20200530131531 62 9 0.0 0.0 0.00 0.00 0.00 72 1007.5
20200530130038 62 19 0.0 0.0 0.00 0.00 0.00 71 1007.5
20200530124529 62 5 0.0 0.0 0.00 0.00 0.00 72 1007.8
20200530123031 63 13 0.9 0.0 0.00 0.00 0.00 74 1007.5
20200530121531 62 17 0.9 0.0 0.00 0.00 0.00 77 1008.2
20200530120032 62 345 2.6 0.0 0.00 0.00 0.00 78 1008.2
20200530114530 61 351 0.0 0.0 0.00 0.00 0.00 80 1007.8
20200530113030 61 9 0.0 0.0 0.00 0.00 0.00 81 1007.8
20200530111530 61 336 0.0 0.0 0.00 0.00 0.00 80 1007.8
20200530110030 62 152 0.0 0.0 0.00 0.00 0.00 80 1007.5
20200530104532 62 248 0.0 0.0 0.00 0.00 0.00 79 1007.8
20200530103031 62 163 0.0 0.0 0.00 0.00 0.00 79 1007.8
20200530101528 62 169 0.0 0.0 0.00 0.00 0.00 78 1007.8
20200530100029 62 42 0.0 0.0 0.00 0.00 0.00 78 1007.8
20200530094530 63 91 0.0 0.0 0.00 0.00 0.00 78 1008.2
20200530093030 63 36 0.0 0.0 0.00 0.00 0.00 75 1008.2
20200530091531 64 348 0.0 0.0 0.00 0.00 0.00 73 1008.5
20200530090029 65 32 0.0 0.0 0.00 0.00 0.00 73 1008.9
20200530084529 65 66 0.0 0.0 0.00 0.00 0.00 72 1008.9
20200530083030 65 176 0.0 0.0 0.00 0.00 0.00 70 1008.9